Theta_e
317 314 310 310 318 320 322 323 322 321 323 321 320 325 327 338 341 338 339 350 348 353 352 353 353 352 351 350 348 345 344 344
316 313 316 317 320 322 320 323 323 322 318 323 328 326 330 336 339 337 337 343 353 353 353 353 354 353 352 351 349 347 345 345
311 311 315 320 322 323 319 320 320 321 317 320 328 330 331 336 338 336 337 340 350 354 354 353 354 353 353 352 351 350 348 346
308 311 316 319 321 321 319 319 321 319 319 321 329 330 331 334 338 338 337 340 345 355 353 353 353 353 353 352 352 351 350 349
311 310 313 317 322 318 318 319 319 322 317 323 327 332 333 335 336 340 338 339 341 354 354 354 353 353 352 352 352 351 351 350
312 309 310 318 319 321 319 318 326 325 317 319 328 332 333 334 335 336 339 338 340 347 353 352 349 354 353 353 352 352 351 351
310 311 313 319 317 322 323 320 321 323 323 326 330 331 331 331 332 334 335 339 340 339 345 349 346 348 353 352 351 351 350 349
317 317 315 319 318 319 319 318 319 321 325 326 328 328 327 327 327 329 332 336 339 341 345 346 343 350 352 347 346 345 345 345
318 319 320 318 319 321 318 316 320 320 323 325 325 326 325 326 327 327 330 333 337 351 353 348 344 344 348 347 345 347 347 352
319 321 319 317 319 319 319 320 324 324 325 324 323 323 324 325 325 326 327 333 336 343 353 355 346 342 345 345 346 343 344 350
319 320 319 320 318 318 319 323 325 324 323 323 322 323 325 325 325 326 327 330 335 345 353 355 357 346 347 348 342 344 341 343
317 317 318 316 317 319 320 324 323 322 322 321 321 323 324 325 325 328 333 334 337 346 356 352 353 358 352 352 343 339 338 339
315 316 315 317 312 314 320 322 320 320 320 321 321 323 324 325 330 330 335 339 340 350 354 356 354 354 351 344 341 338 338 342
313 315 315 314 307 315 320 319 318 318 319 319 322 324 325 325 328 337 341 341 342 337 345 352 355 352 346 341 340 337 338 339
308 315 314 312 309 314 317 317 317 318 318 319 321 323 327 325 329 336 340 340 340 344 342 348 353 348 347 350 340 338 338 338
305 311 312 310 310 314 316 315 315 318 318 318 320 322 326 327 329 335 337 341 343 342 348 351 347 347 340 338 339 337 337 338
308 312 309 309 310 314 315 314 315 316 317 319 321 324 326 329 333 333 336 340 341 340 349 346 340 336 336 334 336 335 338 340
308 312 310 310 308 312 314 314 315 316 318 320 321 323 323 331 333 333 336 338 339 339 344 344 340 342 337 337 334 337 338 341
304 309 310 309 306 309 313 315 315 316 318 320 321 321 322 330 332 334 335 337 338 340 342 345 346 342 340 339 339 335 335 336
304 303 299 308 298 305 309 310 313 316 318 320 320 322 322 331 333 334 335 337 340 341 341 341 343 343 343 333 330 333 336 334
Wind_Speed
8 14 15 5 2 13 6 3 7 5 3 8 3 5 7 11 11 13 15 17 17 23 20 19 19 19 18 17 15 15 13 12
12 19 13 10 3 4 2 9 7 9 11 7 9 2 8 4 11 11 14 16 17 24 21 20 19 18 18 16 16 15 14 13
15 18 18 2 12 6 7 10 4 2 13 1 12 7 2 4 8 9 12 13 18 22 21 21 20 19 19 17 16 15 14 13
16 20 18 6 7 9 10 9 9 3 9 5 9 7 4 2 7 9 10 12 15 20 20 20 19 18 17 16 15 14 13 12
20 19 13 6 10 11 10 10 5 3 7 6 7 8 2 1 4 9 10 12 12 16 17 17 17 17 16 15 14 13 12 11
18 17 18 11 3 11 6 10 10 2 10 14 4 5 5 7 6 10 12 13 14 13 16 17 16 15 15 15 14 13 12 11
21 21 17 15 9 12 3 11 13 12 15 14 13 9 12 12 10 9 9 14 14 16 15 17 17 16 13 14 14 13 12 11
21 19 18 23 12 15 13 9 15 16 18 14 13 9 14 16 15 16 14 15 16 16 15 16 13 14 14 14 12 12 12 12
24 20 21 25 26 21 18 24 17 18 20 15 17 16 17 18 20 20 18 11 16 13 12 15 14 11 9 8 9 9 13 10
27 28 26 27 26 23 24 23 20 19 20 18 18 19 19 20 21 22 22 17 12 16 14 12 10 11 10 9 10 8 10 10
28 30 30 28 30 30 26 25 24 18 21 21 19 20 19 20 21 21 21 18 8 16 15 13 12 11 10 10 9 9 8 8
31 32 31 29 31 28 26 27 28 20 23 23 21 21 19 19 19 18 16 13 9 15 16 16 14 12 10 8 10 9 8 8
34 31 31 27 35 34 28 29 27 24 24 23 19 20 21 20 16 15 13 10 10 12 16 15 15 13 9 9 9 9 8 8
30 32 29 24 32 27 28 26 27 22 22 15 20 23 21 19 16 13 12 10 10 13 17 15 13 11 9 10 10 8 7 7
30 29 27 30 38 27 27 25 28 25 16 17 22 22 17 17 17 12 10 10 10 12 15 16 13 11 10 8 8 7 6 6
32 29 28 32 35 28 22 23 28 24 19 21 24 22 19 17 12 6 8 6 9 11 12 14 11 9 10 8 8 7 6 6
32 28 30 33 34 23 22 27 29 25 19 21 23 23 18 12 2 5 4 8 11 13 11 11 11 11 10 9 7 7 6 6
29 27 27 27 29 29 23 25 28 28 22 21 24 20 15 1 2 4 7 10 12 13 14 12 10 8 7 7 7 6 5 4
31 24 25 27 29 31 30 28 26 28 30 27 21 18 17 8 5 7 9 11 13 14 15 12 10 6 4 4 1 5 6 7
26 23 21 22 23 30 23 25 24 28 25 18 19 20 15 10 8 9 10 12 14 15 15 11 11 9 8 6 6 2 1 3
Wind_Direction
227 236 265 351 186 244 101 235 263 269 170 326 323 74 341 80 156 161 160 163 180 173 180 178 180 179 181 184 186 190 195 199
260 257 238 305 206 87 259 207 213 289 289 151 61 18 19 68 168 171 171 171 159 170 182 183 185 183 182 185 188 194 200 204
239 251 272 241 283 333 307 278 278 45 280 186 93 71 58 120 182 200 183 178 156 171 184 187 188 187 185 187 190 196 202 208
246 244 250 230 259 262 270 270 260 197 264 293 127 73 28 136 185 219 193 183 163 173 187 193 189 191 188 188 192 198 206 210
265 277 285 239 250 263 265 276 263 155 283 282 138 94 62 314 217 218 212 186 198 176 192 199 197 192 191 189 192 199 205 210
253 261 265 276 315 254 293 286 53 294 271 276 108 75 298 235 235 209 214 204 204 192 187 203 200 201 194 189 193 201 206 212
252 257 265 263 210 254 250 289 294 286 277 272 296 305 281 280 263 255 227 206 203 203 200 198 201 192 198 199 198 204 211 218
253 263 279 292 255 249 256 227 258 271 274 265 242 268 279 288 279 272 229 220 208 208 199 198 204 196 197 202 208 213 221 229
254 257 271 272 268 279 288 279 276 290 286 313 297 290 279 273 274 279 273 255 214 191 198 207 202 190 183 205 202 211 221 221
258 269 280 274 268 272 270 280 290 289 284 291 292 286 291 291 289 284 282 241 228 191 185 204 215 197 194 197 201 201 207 210
258 262 270 272 276 280 273 272 286 288 286 280 273 281 293 290 287 283 278 271 243 187 179 193 211 201 203 200 193 203 206 209
258 262 267 267 267 261 260 269 265 272 272 272 277 288 294 295 292 286 277 274 246 188 174 183 199 227 187 192 189 195 215 210
256 260 259 259 262 261 266 265 270 269 269 264 270 289 291 292 284 276 270 266 238 205 172 185 198 213 194 185 219 191 208 207
250 251 251 246 260 266 269 266 266 262 272 279 281 286 302 298 284 268 264 257 219 213 177 187 197 199 198 198 195 209 206 209
253 249 248 240 255 255 266 261 263 264 275 274 274 289 296 287 279 258 247 244 227 196 192 186 192 193 203 189 204 200 208 218
255 254 247 248 260 254 263 266 268 271 259 272 278 287 292 292 271 306 281 258 179 185 199 172 181 191 196 173 205 213 212 226
247 245 241 258 263 255 257 263 262 258 253 264 281 284 288 273 328 274 216 180 184 188 166 166 173 187 188 196 200 210 219 222
260 261 259 253 257 269 255 260 268 272 267 263 273 277 278 90 161 200 184 179 179 171 157 180 178 201 190 201 198 208 213 199
252 259 259 262 267 260 259 262 263 270 273 272 274 266 265 140 158 169 178 173 166 158 164 183 171 162 161 140 271 199 205 215
251 257 257 251 265 256 263 264 259 262 258 256 252 262 242 138 159 178 166 163 152 156 167 169 163 164 183 205 218 149 346 331